Fort Polk, LA

4:41 AM CDT on April 19, 2018 (GMT -0500)
Fort Polk

Weather History for KDNK - February, 2013

Change the Weather History Date:

Monday, February 25, 2013

  Actual Average (KPOE) Record (KPOE)
Temperature  
Mean Temperature 58 °F -  
Max Temperature 69 °F 62 °F 77 °F (2001)
Min Temperature 46 °F 43 °F 33 °F (2015)
Degree Days  
Heating Degree Days 6    
Growing Degree Days 8 (Base 50)    
Moisture  
Dew Point 55 °F    
Average Humidity 79    
Maximum Humidity 100    
Minimum Humidity 35    
Precipitation  
Precipitation 0.26 in - - ()
Sea Level Pressure  
Sea Level Pressure 29.55 in    
Wind  
Wind Speed 7 mph (SSE)    
Max Wind Speed 22 mph    
Max Gust Speed 33 mph    
Visibility 8 miles    
Events Rain , Thunderstorm    
Averages and records for this station are not official NWS values.
T = Trace of Precipitation, MM = Missing Value Source: NWS Daily Summary

Daily Weather History Graph

Daily Weather History Graph

Search for Another Location

Airport or City:

Astronomy

Feb. 25, 2013 Rise Set
Actual Time 6:42 AM CST 6:07 PM CST
Civil Twilight 6:18 AM CST 6:31 PM CST
Nautical Twilight 5:50 AM CST 7:00 PM CST
Astronomical Twilight 5:22 AM CST 7:28 PM CST
Moon 6:17 PM CST (2/25) 6:15 AM CST (2/25)
Length of Visible Light 12h 13m
Length of Day
11h 24m
Full, 100% of the Moon is Illuminated
Feb 25
Full
Feb 25
Full
Mar 4
Last Quarter
Mar 11
New
Mar 19
First Quarter

Hourly Weather History & Observations

Time (CST) Temp. Dew Point Humidity Pressure Visibility Wind Dir Wind Speed Gust Speed Precip Events Conditions
12:37 AM 59.0 °F 51.8 °F 77% 29.70 in 10.0 mi East 6.9 mph - N/A   Overcast
12:53 AM 59.0 °F 52.0 °F 78% 29.70 in 10.0 mi East 4.6 mph - N/A   Overcast
1:34 AM 59.0 °F 53.6 °F 82% 29.69 in 10.0 mi Variable 3.5 mph - N/A   Overcast
1:53 AM 59.0 °F 54.0 °F 83% 29.67 in 10.0 mi ESE 4.6 mph - N/A   Overcast
2:53 AM 59.0 °F 55.9 °F 90% 29.65 in 10.0 mi East 5.8 mph - N/A   Overcast
3:53 AM 59.0 °F 55.9 °F 90% 29.62 in 8.0 mi East 4.6 mph - N/A   Overcast
4:41 AM 59.0 °F 57.2 °F 94% 29.63 in 4.0 mi East 4.6 mph - N/A   Overcast
4:53 AM 59.0 °F 57.0 °F 93% 29.62 in 3.0 mi East 4.6 mph - N/A   Overcast
5:11 AM 59.0 °F 57.2 °F 94% 29.62 in 2.5 mi ESE 5.8 mph - N/A   Overcast
5:26 AM 59.0 °F 57.2 °F 94% 29.62 in 3.0 mi ESE 6.9 mph - N/A   Overcast
5:53 AM 59.0 °F 57.9 °F 96% 29.62 in 5.0 mi SE 5.8 mph - N/A   Overcast
6:53 AM 60.1 °F 57.9 °F 93% 29.62 in 9.0 mi SE 6.9 mph - N/A   Overcast
7:53 AM 61.0 °F 59.0 °F 93% 29.66 in 6.0 mi SE 3.5 mph - N/A   Overcast
8:53 AM 63.0 °F 60.1 °F 90% 29.65 in 8.0 mi ESE 6.9 mph - N/A   Overcast
9:53 AM 64.0 °F 61.0 °F 90% 29.64 in 10.0 mi SE 5.8 mph - N/A   Overcast
10:29 AM 66.2 °F 62.6 °F 88% 29.61 in 10.0 mi SE 10.4 mph - N/A   Overcast
10:53 AM 68.0 °F 63.0 °F 84% 29.60 in 10.0 mi SSE 10.4 mph - N/A   Overcast
11:53 AM 68.0 °F 64.0 °F 87% 29.55 in 10.0 mi SE 8.1 mph - N/A   Overcast
12:53 PM 69.1 °F 64.9 °F 87% 29.48 in 10.0 mi SSE 10.4 mph - N/A   Overcast
1:18 PM 68.0 °F 64.4 °F 88% 29.44 in 8.0 mi ESE 5.8 mph - 0.00 in Rain , Thunderstorm Light Thunderstorms and Rain
1:46 PM 66.2 °F 64.4 °F 94% 29.45 in 1.8 mi South 4.6 mph - 0.10 in Rain , Thunderstorm Heavy Thunderstorms and Rain
1:53 PM 66.9 °F 64.9 °F 93% 29.44 in 1.0 mi SW 4.6 mph - 0.18 in Rain , Thunderstorm Heavy Thunderstorms and Rain
2:07 PM 66.2 °F 64.4 °F 94% 29.44 in 2.5 mi South 5.8 mph - 0.07 in Rain , Thunderstorm Light Thunderstorms and Rain
2:17 PM 66.2 °F 66.2 °F 100% 29.43 in 4.0 mi SSE 11.5 mph - 0.08 in Rain , Thunderstorm Light Thunderstorms and Rain
2:26 PM 68.0 °F 64.4 °F 88% 29.44 in 8.0 mi South 11.5 mph - 0.08 in Rain Light Rain
2:34 PM 68.0 °F 64.4 °F 88% 29.43 in 10.0 mi SSE 10.4 mph - 0.08 in   Overcast
2:53 PM 68.0 °F 64.9 °F 90% 29.42 in 10.0 mi South 6.9 mph - 0.08 in   Overcast
3:04 PM 68.0 °F 64.4 °F 88% 29.42 in 10.0 mi SSW 8.1 mph - N/A   Overcast
3:15 PM 68.0 °F 60.8 °F 78% 29.42 in 10.0 mi West 9.2 mph 17.3 mph N/A   Overcast
3:53 PM 66.0 °F 52.0 °F 60% 29.43 in 10.0 mi West 6.9 mph - N/A   Overcast
4:53 PM 68.0 °F 53.1 °F 59% 29.42 in 10.0 mi SW 6.9 mph - N/A   Clear
5:53 PM 64.9 °F 44.1 °F 47% 29.44 in 10.0 mi WSW 5.8 mph - N/A   Clear
6:53 PM 61.0 °F 35.1 °F 38% 29.48 in 10.0 mi West 9.2 mph - N/A   Clear
7:53 PM 59.0 °F 30.9 °F 35% 29.51 in 10.0 mi West 11.5 mph 20.7 mph N/A   Clear
8:53 PM 54.0 °F 28.0 °F 37% 29.55 in 10.0 mi West 16.1 mph 28.8 mph N/A   Clear
9:53 PM 51.1 °F 28.9 °F 43% 29.57 in 10.0 mi West 13.8 mph 27.6 mph N/A   Clear
10:53 PM 48.9 °F 28.9 °F 46% 29.60 in 10.0 mi West 12.7 mph 28.8 mph N/A   Clear
11:53 PM 46.9 °F 28.9 °F 50% 29.61 in 10.0 mi WSW 21.9 mph 33.4 mph N/A   Clear